Regional Weather Roundup
Issued by NWS

Home | Current Version | Previous Version | Text Only | Print | Product List | Glossary On
Versions: 1 2 3 4 5 6 7 8 9 10 11 12 13 14 15 16 17 18 19 20 21 22 23 24 25 26 27 28 29 30 31 32 33 34 35 36 37 38 39 40 41 42 43 44 45 46 47 48 49 50
208
ASUS43 KLSX 220907
RWRMO

WEATHER SUMMARY FOR MISSOURI
NATIONAL WEATHER SERVICE SPRINGFIELD MO
400 AM CDT FRI SEP 22 2017

NOTE: "FAIR" INDICATES FEW OR NO CLOUDS BELOW 12,000 FEET WITH NO
       SIGNIFICANT WEATHER AND/OR OBSTRUCTIONS TO VISIBILITY.
       CURRENT SKY AND/OR WEATHER CONDITIONS ARE NOT AVAILABLE FOR
       CHILLICOTHE AND FARMINGTON.

MOZ001>031-035>038-043-044-053-054-221000-
...NORTHERN AND WESTERN MISSOURI...

CITY           SKY/WX    TMP DP  RH WIND       PRES   REMARKS
KANSAS CTY INT CLEAR     76  70  82 S13       29.92F
KANSAS C DTWN  CLEAR     78  71  79 S7        29.92S
LEE`S SUMMIT   CLEAR     74  70  87 S12       29.95S
ST JOSEPH      CLEAR     76  71  85 S8        29.91R
CHILLICOTHE      N/A     75  70  84 SE6       29.96R
KIRKSVILLE     CLEAR     71  67  87 S5        30.00R

$$
MOZ066>068-077>081-088>096-101>105-221000-
...SOUTHWEST MISSOURI...

CITY           SKY/WX    TMP DP  RH WIND       PRES   REMARKS
SPRINGFIELD    CLEAR     73  69  87 SE10      30.00S
JOPLIN         CLEAR     72  70  93 S6        29.96S
BRANSON        CLEAR     68  66  94 CALM      30.03R

$$
MOZ032>034-039>042-045>050-055>058-069>072-221000-
...CENTRAL MISSOURI...

CITY           SKY/WX    TMP DP  RH WIND       PRES   REMARKS
COLUMBIA       CLEAR     73  69  87 SE8       30.02R
JEFFERSON CITY CLEAR     73  67  81 E5        30.01R
ROLLA          CLEAR     72  69  90 S6        30.05R
SEDALIA        CLEAR     73  70  90 SE6       29.99S
WHITEMAN AFB   CLEAR     72  66  81 S7        29.96R
WARRENSBURG    CLEAR     72  66  83 SE5       29.96R
OSAGE BEACH    CLEAR     71  68  90 SE3       30.02R

$$
MOZ051-052-059>065-221000-
...EAST CENTRAL MISSOURI...

CITY           SKY/WX    TMP DP  RH WIND       PRES   REMARKS
ST LOUIS INTL  CLEAR     77  69  76 S6        30.03R
SPIRIT OF STL  CLEAR     69  69 100 CALM      30.01S
ST CHARLES     CLEAR     70  69  97 NE3       30.01S

$$
MOZ072>076-082>087-097>100-106>115-221000-
...SOUTH CENTRAL AND SOUTHEAST MISSOURI...

CITY           SKY/WX    TMP DP  RH WIND       PRES   REMARKS
CAPE GIRARDEAU CLEAR     68  66  93 CALM      30.03R
FARMINGTON     CLEAR     68  66  93 CALM      30.06R
POPLAR BLUFF   CLEAR     67  67 100 CALM      30.02R
WEST PLAINS    CLEAR     70  67  90 CALM      30.06R

$$



USA.gov is the U.S. government's official web portal to all federal, state and local government web resources and services.